Weather History for Ketchikan, AK

Change the Weather History Date:

Tuesday, March 5, 2013

  Actual Average Record
Temperature  
Mean Temperature 38 °F -  
Max Temperature 45 °F 42 °F 51 °F (1965)
Min Temperature 30 °F 32 °F 9 °F (1951)
Degree Days  
Heating Degree Days 28    
Moisture  
Dew Point 26 °F    
Average Humidity 67    
Maximum Humidity 89    
Minimum Humidity 36    
Precipitation  
Precipitation 0.00 in - - ()
Sea Level Pressure  
Sea Level Pressure 30.02 in    
Wind  
Wind Speed 8 mph (NW)    
Max Wind Speed 16 mph    
Max Gust Speed -    
Visibility 10 miles    
Events      
Averages and records for this station are not official NWS values.
T = Trace of Precipitation, MM = Missing Value Source: NWS Daily Summary

Daily Weather History Graph

Daily Weather History Graph

Search for Another Location

Airport:

Trip Planner

Search our weather history database for the weather conditions in past years. The results will help you decide how hot, cold, wet, or windy it might be!

Date:

Astronomy

Mar. 05, 2013 Rise Set
Actual Time 6:26 AM AKST 5:31 PM AKST
Civil Twilight 5:49 AM AKST 6:07 PM AKST
Nautical Twilight 5:07 AM AKST 6:50 PM AKST
Astronomical Twilight 4:24 AM AKST 7:33 PM AKST
Moon 2:32 AM AKST (3/5) 10:30 AM AKST (3/5)
Length of Visible Light 12h 17m
Length of Day
11h 04m
Last Quarter, 39% of the Moon is Illuminated
Mar 5
Last Quarter
Mar 11
New
Mar 19
First Quarter
Mar 27
Full
Apr 2
Last Quarter

Hourly Weather History & Observations

Time (AKST) Temp. Windchill Dew Point Humidity Pressure Visibility Wind Dir Wind Speed Gust Speed Precip Events Conditions
12:53 AM 34.0 °F 28.0 °F 25.0 °F 70% 30.18 in 10.0 mi NNW 6.9 mph - N/A   Clear
1:53 AM 32.0 °F - 26.1 °F 79% 30.17 in 10.0 mi Calm Calm - N/A   Clear
3:53 AM 30.0 °F 24.1 °F 26.1 °F 85% 30.14 in 10.0 mi NNW 5.8 mph - N/A   Clear
4:53 AM 32.0 °F 27.5 °F 26.1 °F 79% 30.12 in 10.0 mi NNW 4.6 mph - N/A   Clear
5:53 AM 32.0 °F 27.5 °F 23.0 °F 69% 30.11 in 10.0 mi NNW 4.6 mph - N/A   Clear
6:10 AM 33.8 °F 23.9 °F 24.8 °F 70% 30.09 in 10.0 mi NW 15.0 mph - N/A   Clear
6:53 AM 34.0 °F 23.8 °F 25.0 °F 70% 30.09 in 10.0 mi WNW 16.1 mph - N/A   Clear
7:53 AM 35.1 °F 27.4 °F 27.0 °F 72% 30.08 in 10.0 mi North 10.4 mph - N/A   Clear
8:53 AM 37.0 °F 29.8 °F 27.0 °F 67% 30.07 in 10.0 mi North 10.4 mph - N/A   Clear
9:53 AM 39.9 °F 32.9 °F 25.0 °F 55% 30.05 in 10.0 mi NNW 11.5 mph - N/A   Clear
10:53 AM 42.1 °F 36.1 °F 21.9 °F 45% 30.04 in 10.0 mi NW 10.4 mph - N/A   Clear
11:53 AM 43.0 °F 36.8 °F 21.9 °F 43% 30.02 in 10.0 mi NW 11.5 mph - N/A   Clear
12:53 PM 44.1 °F 38.6 °F 19.9 °F 38% 30.00 in 10.0 mi WNW 10.4 mph - N/A   Clear
1:53 PM 45.0 °F 39.7 °F 19.0 °F 36% 29.99 in 10.0 mi NW 10.4 mph - N/A   Clear
2:53 PM 44.1 °F 38.6 °F 21.9 °F 42% 29.97 in 10.0 mi NW 10.4 mph - N/A   Clear
3:53 PM 43.0 °F 38.2 °F 23.0 °F 45% 29.95 in 10.0 mi NW 8.1 mph - N/A   Clear
4:53 PM 39.9 °F 34.5 °F 27.0 °F 60% 29.94 in 10.0 mi NW 8.1 mph - N/A   Clear
5:53 PM 37.0 °F 31.6 °F 28.9 °F 73% 29.93 in 10.0 mi NW 6.9 mph - N/A   Clear
6:53 PM 35.1 °F 29.3 °F 28.0 °F 76% 29.93 in 10.0 mi WNW 6.9 mph - N/A   Clear
7:53 PM 34.0 °F 29.8 °F 30.0 °F 85% 29.93 in 10.0 mi WNW 4.6 mph - N/A   Clear
8:53 PM 33.1 °F 26.9 °F 30.0 °F 89% 29.94 in 10.0 mi WNW 6.9 mph - N/A   Clear
9:53 PM 33.1 °F 28.7 °F 28.9 °F 85% 29.94 in 10.0 mi NW 4.6 mph - N/A   Clear
10:53 PM 32.0 °F 27.5 °F 28.9 °F 88% 29.95 in 10.0 mi WNW 4.6 mph - N/A   Clear
11:53 PM 32.0 °F 26.4 °F 28.9 °F 88% 29.95 in 10.0 mi WNW 5.8 mph - N/A   Clear